User: anonymous   Login
Location: ?
(35.4996°N, 139.3166°E)
Time: 00:09:23
(UTC+00:00)
Language:

Meteor 1-18 Rocket - Orbit

View from above orbital plane
View from above orbital plane
View from above satellite
View from above satellite

Ground track
Ground track

The orbit data is extracted from the following two-line orbital elements,

1 07364U 74052B   24168.79401764  .00000081  00000-0  41122-4 0  9990
2 07364  81.2307 192.3018 0049993 158.7575 201.5685 14.06241356560403
Epoch (UTC): 16 June 2024 19:03:23
Eccentricity: 0.0049993
inclination: 81.2307°
perigee height: 836 km
apogee height: 908 km
right ascension of ascending node: 192.3018°
argument of perigee: 158.7575°
revolutions per day: 14.06241356
mean anomaly at epoch: 201.5685°
orbit number at epoch: 56040

The dashed part of the orbit path shows where the satellite is in the earth's shadow,  

DLR